Tracking 31027 objects as of 19-Jul-2025
HD Live streaming from Space Station
objects crossing your sky now

APRIZESAT 1

Track APRIZESAT 1 now!
10-day predictions
APRIZESAT 1 is classified as:


NORAD ID: 28372
Int'l Code: 2004-025G
Perigee: 695.3 km
Apogee: 760.7 km
Inclination: 98.6 °
Period: 99.2 minutes
Semi major axis: 7098 km
RCS: 0.0588 m2 (small)
Launch date: June 29, 2004
Source: United States (US)
Launch site: TYURATAM MISSILE AND SPACE COMPLEX (TTMTR)

Uplink (MHz):
Downlink (MHz):
Beacon (MHz):
Mode:
Call sign:
Status: Unknown


Messaging services.
Your satellite tracking list
STARLINK-1243
Track 1 satellite(s)




NASA's NSSDC Master Catalog

Two Line Element Set (TLE):
1 28372U 04025G   25199.47818811  .00000232  00000-0  69383-4 0  9997
2 28372  98.6244 196.2139 0046080  89.8415 270.8059 14.51475970113493
Source of the keplerian elements: AFSPC